Location: ECC Obs
(38.4314°N, 90.9815°W)
Time: 00:17:21
(UTC-05:00)

Vanguard 2 Rocket - Visible Passes

Search period start: 10 April 2020 00:00
Search period end: 20 April 2020 00:00
Orbit: 554 x 3326 km, 32.9° (Epoch: 09 April)

Date Brightness Start Highest point End Pass type
(mag) Time Alt. Az. Time Alt. Az. Time Alt. Az.
10 Apr 8.9 05:01:16 10° SSE 05:01:38 10° SSE 05:02:00 10° SSE visible
12 Apr 8.3 05:12:25 12° SSW 05:15:51 18° SSE 05:19:02 10° ESE visible
13 Apr 8.8 04:16:08 15° SSE 04:16:24 15° SSE 04:19:31 10° SE visible
14 Apr 7.8 05:25:35 13° SW 05:30:05 28° SSE 05:33:56 10° ESE visible
15 Apr 8.2 04:29:13 23° S 04:30:41 25° SSE 04:34:53 10° ESE visible
16 Apr 8.8 03:32:48 20° SE 03:32:48 20° SE 03:35:40 10° ESE visible
16 Apr 7.3 05:38:35 11° WSW 05:44:19 38° S 05:48:26 10° ESE visible
17 Apr 7.8 04:42:07 26° SSW 04:44:56 35° SSE 04:49:35 10° ESE visible
18 Apr 8.2 03:45:37 32° SSE 03:45:37 32° SSE 03:50:39 10° ESE visible
18 Apr 7.1 05:52:08 10° WSW 05:58:31 46° S 06:02:46 10° ESE visible
19 Apr 9.0 02:49:06 20° ESE 02:49:06 20° ESE 02:51:29 10° ESE visible
19 Apr 7.4 04:54:52 23° SW 04:59:10 45° S 05:04:00 10° E visible
